| time (UTC) | temp C | wind direction | speed KPH | gust KPH | rain 1hr cm | rain 24hr cm | rain mn cm | humidity % | barometer mb |
| 20260903130116 | 26 | 215 | 4.8 | 11.3 | 0.00 | 0.00 | 0.00 | 88 | 1013.8 |
| 20260903130011 | 26 | 163 | 4.8 | 11.3 | 0.00 | 0.00 | 0.00 | 89 | 1015.2 |
| 20260903124550 | 26 | 178 | 1.6 | 14.5 | 0.00 | 0.00 | 0.00 | 89 | 1013.6 |
| 20260903124503 | 26 | 175 | 1.6 | 12.9 | 0.00 | 0.00 | 0.00 | 89 | 1015.2 |
| 20260903123106 | 26 | 167 | 0.0 | 8.0 | 0.00 | 0.00 | 0.00 | 89 | 1015.1 |
| 20260903123101 | 26 | 0 | 0.0 | 14.5 | 0.00 | 0.00 | 0.00 | 89 | 1013.6 |
| 20260903121600 | 26 | 186 | 1.6 | 9.7 | 0.00 | 0.00 | 0.00 | 89 | 1015.0 |
| 20260903121557 | 26 | 207 | 1.6 | 9.7 | 0.00 | 0.00 | 0.00 | 89 | 1013.4 |
| 20260903120106 | 26 | 178 | 0.0 | 8.0 | 0.00 | 0.00 | 0.00 | 89 | 1014.9 |
| 20260903120058 | 26 | 0 | 0.0 | 11.3 | 0.00 | 0.00 | 0.00 | 88 | 1013.2 |
| 20260903114603 | 26 | 219 | 1.6 | 14.5 | 0.00 | 0.00 | 0.00 | 88 | 1013.3 |
| 20260903114600 | 26 | 210 | 3.2 | 11.3 | 0.00 | 0.00 | 0.00 | 89 | 1014.9 |
| 20260903113059 | 26 | 0 | 1.6 | 11.3 | 0.00 | 0.00 | 0.00 | 88 | 1013.2 |
| 20260903113056 | 26 | 175 | 1.6 | 11.3 | 0.00 | 0.00 | 0.00 | 88 | 1014.8 |
| 20260903111613 | 26 | 202 | 3.2 | 14.5 | 0.00 | 0.00 | 0.00 | 88 | 1013.1 |
| 20260903111610 | 26 | 165 | 3.2 | 12.9 | 0.00 | 0.00 | 0.00 | 88 | 1014.7 |
| 20260903110112 | 26 | 193 | 0.0 | 11.3 | 0.00 | 0.00 | 0.00 | 88 | 1014.8 |
| 20260903104556 | 26 | 167 | 3.2 | 17.7 | 0.00 | 0.00 | 0.00 | 87 | 1013.4 |
| 20260903104552 | 26 | 167 | 3.2 | 9.7 | 0.00 | 0.00 | 0.00 | 88 | 1014.9 |
| 20260903103056 | 26 | 0 | 3.2 | 14.5 | 0.00 | 0.00 | 0.00 | 87 | 1013.2 |
| 20260903103048 | 26 | 130 | 0.0 | 9.7 | 0.00 | 0.00 | 0.00 | 88 | 1014.8 |
| 20260903101604 | 26 | 223 | 3.2 | 14.5 | 0.00 | 0.00 | 0.00 | 87 | 1013.1 |
| 20260903101545 | 26 | 210 | 3.2 | 12.9 | 0.00 | 0.00 | 0.00 | 88 | 1014.7 |
| 20260903100053 | 26 | 161 | 3.2 | 14.5 | 0.00 | 0.00 | 0.00 | 87 | 1013.1 |
| 20260903100045 | 26 | 176 | 4.8 | 11.3 | 0.00 | 0.00 | 0.00 | 88 | 1014.7 |
| 20260903094559 | 26 | 0 | 3.2 | 11.3 | 0.00 | 0.00 | 0.00 | 87 | 1013.2 |
| 20260903094552 | 26 | 128 | 3.2 | 11.3 | 0.00 | 0.00 | 0.00 | 88 | 1014.8 |
| 20260903093056 | 26 | 162 | 4.8 | 17.7 | 0.00 | 0.00 | 0.00 | 87 | 1013.2 |
| 20260903093043 | 26 | 146 | 4.8 | 14.5 | 0.00 | 0.00 | 0.00 | 87 | 1014.7 |
| 20260903091553 | 26 | 188 | 3.2 | 12.9 | 0.00 | 0.00 | 0.00 | 87 | 1013.1 |
| 20260903091541 | 26 | 183 | 4.8 | 12.9 | 0.00 | 0.00 | 0.00 | 87 | 1014.8 |
| 20260903090050 | 26 | 169 | 3.2 | 14.5 | 0.00 | 0.00 | 0.00 | 87 | 1012.9 |
| 20260903090042 | 26 | 181 | 1.6 | 12.9 | 0.00 | 0.00 | 0.00 | 88 | 1014.6 |
| 20260903084557 | 26 | 142 | 4.8 | 12.9 | 0.00 | 0.00 | 0.00 | 87 | 1013.1 |
| 20260903084541 | 26 | 142 | 4.8 | 9.7 | 0.00 | 0.00 | 0.00 | 88 | 1014.8 |
| 20260903083059 | 26 | 163 | 4.8 | 14.5 | 0.00 | 0.00 | 0.00 | 87 | 1013.2 |
| 20260903083041 | 26 | 155 | 4.8 | 14.5 | 0.00 | 0.00 | 0.00 | 88 | 1014.8 |
| 20260903081553 | 26 | 163 | 4.8 | 14.5 | 0.00 | 0.00 | 0.00 | 87 | 1013.1 |
| 20260903081545 | 26 | 162 | 3.2 | 14.5 | 0.00 | 0.00 | 0.00 | 87 | 1014.7 |
| 20260903080054 | 27 | 173 | 3.2 | 14.5 | 0.00 | 0.00 | 0.00 | 85 | 1012.9 |
| 20260903080038 | 27 | 169 | 4.8 | 14.5 | 0.00 | 0.00 | 0.00 | 86 | 1014.7 |
| 20260903074607 | 27 | 148 | 4.8 | 11.3 | 0.00 | 0.00 | 0.00 | 84 | 1013.1 |
| 20260903074540 | 27 | 149 | 4.8 | 12.9 | 0.00 | 0.00 | 0.00 | 84 | 1014.8 |
| 20260903073055 | 27 | 174 | 3.2 | 14.5 | 0.00 | 0.00 | 0.00 | 83 | 1013.1 |
| 20260903073038 | 27 | 163 | 4.8 | 14.5 | 0.00 | 0.00 | 0.00 | 83 | 1014.7 |
| 20260903071556 | 27 | 196 | 8.0 | 14.5 | 0.00 | 0.00 | 0.00 | 82 | 1013.2 |
| 20260903071534 | 27 | 196 | 6.4 | 14.5 | 0.00 | 0.00 | 0.00 | 82 | 1014.8 |
| 20260903070052 | 27 | 84 | 3.2 | 16.1 | 0.00 | 0.00 | 0.00 | 79 | 1013.3 |
| 20260903070036 | 27 | 84 | 3.2 | 14.5 | 0.00 | 0.00 | 0.00 | 80 | 1015.0 |
| 20260903064601 | 27 | 125 | 9.7 | 19.3 | 0.00 | 0.00 | 0.00 | 79 | 1013.4 |
| 20260903064530 | 27 | 125 | 8.0 | 19.3 | 0.00 | 0.00 | 0.00 | 79 | 1015.1 |
| 20260903063054 | 27 | 175 | 6.4 | 22.5 | 0.00 | 0.00 | 0.00 | 78 | 1013.3 |
| 20260903063028 | 27 | 179 | 8.0 | 22.5 | 0.00 | 0.00 | 0.00 | 78 | 1015.1 |
| 20260903061559 | 28 | 142 | 4.8 | 16.1 | 0.00 | 0.00 | 0.00 | 78 | 1013.4 |
| 20260903061536 | 28 | 146 | 4.8 | 16.1 | 0.00 | 0.00 | 0.00 | 78 | 1015.0 |
| 20260903060051 | 28 | 166 | 6.4 | 19.3 | 0.00 | 0.00 | 0.00 | 77 | 1013.2 |
| 20260903060024 | 28 | 141 | 6.4 | 17.7 | 0.00 | 0.00 | 0.00 | 78 | 1015.0 |
| 20260903054557 | 28 | 153 | 8.0 | 25.7 | 0.00 | 0.00 | 0.00 | 77 | 1013.0 |
| 20260903054540 | 28 | 189 | 6.4 | 25.7 | 0.00 | 0.00 | 0.00 | 77 | 1014.7 |
| 20260903053108 | 28 | 136 | 11.3 | 24.1 | 0.00 | 0.00 | 0.00 | 76 | 1013.2 |
| 20260903053019 | 28 | 107 | 9.7 | 24.1 | 0.00 | 0.00 | 0.00 | 76 | 1014.9 |
| 20260903051603 | 29 | 169 | 6.4 | 17.7 | 0.00 | 0.00 | 0.00 | 74 | 1013.1 |
| 20260903051517 | 29 | 170 | 6.4 | 14.5 | 0.00 | 0.00 | 0.00 | 74 | 1014.8 |
| 20260903050107 | 29 | 136 | 4.8 | 20.9 | 0.00 | 0.00 | 0.00 | 73 | 1013.0 |
| 20260903050014 | 29 | 136 | 4.8 | 17.7 | 0.00 | 0.00 | 0.00 | 73 | 1014.6 |
| 20260903044558 | 30 | 144 | 9.7 | 22.5 | 0.00 | 0.00 | 0.00 | 70 | 1013.0 |
| 20260903044513 | 30 | 144 | 9.7 | 22.5 | 0.00 | 0.00 | 0.00 | 70 | 1014.5 |
| 20260903043051 | 30 | 127 | 8.0 | 20.9 | 0.00 | 0.00 | 0.00 | 66 | 1012.9 |
| 20260903043011 | 30 | 154 | 9.7 | 19.3 | 0.00 | 0.00 | 0.00 | 67 | 1014.3 |
| 20260903041604 | 31 | 171 | 12.9 | 33.8 | 0.00 | 0.00 | 0.00 | 64 | 1013.0 |
| 20260903041514 | 31 | 148 | 12.9 | 30.6 | 0.00 | 0.00 | 0.00 | 64 | 1014.3 |
| 20260903040059 | 31 | 118 | 8.0 | 30.6 | 0.00 | 0.00 | 0.00 | 60 | 1012.8 |
| 20260903040011 | 31 | 186 | 9.7 | 30.6 | 0.00 | 0.00 | 0.00 | 60 | 1014.2 |
| 20260903034554 | 31 | 109 | 14.5 | 30.6 | 0.00 | 0.00 | 0.00 | 64 | 1012.6 |
| 20260903034510 | 31 | 172 | 14.5 | 30.6 | 0.00 | 0.00 | 0.00 | 65 | 1014.0 |
| 20260903033107 | 31 | 186 | 9.7 | 20.9 | 0.00 | 0.00 | 0.00 | 63 | 1012.1 |
| 20260903033009 | 31 | 123 | 9.7 | 20.9 | 0.00 | 0.00 | 0.00 | 63 | 1013.6 |
| 20260903031555 | 32 | 143 | 9.7 | 24.1 | 0.00 | 0.00 | 0.00 | 62 | 1011.8 |
| 20260903031508 | 32 | 157 | 9.7 | 24.1 | 0.00 | 0.00 | 0.00 | 62 | 1013.5 |
| 20260903030057 | 31 | 165 | 9.7 | 17.7 | 0.00 | 0.00 | 0.00 | 57 | 1011.7 |
| 20260903030018 | 31 | 134 | 11.3 | 17.7 | 0.00 | 0.00 | 0.00 | 57 | 1013.2 |
| 20260903024552 | 31 | 123 | 3.2 | 6.4 | 0.00 | 0.00 | 0.00 | 55 | 1011.3 |
| 20260903024508 | 31 | 123 | 3.2 | 6.4 | 0.00 | 0.00 | 0.00 | 56 | 1013.0 |
| 20260903023057 | 31 | 126 | 3.2 | 8.0 | 0.00 | 0.00 | 0.00 | 56 | 1011.0 |
| 20260903023010 | 31 | 141 | 4.8 | 8.0 | 0.00 | 0.00 | 0.00 | 56 | 1012.8 |
| 20260903021608 | 31 | 128 | 1.6 | 4.8 | 0.00 | 0.00 | 0.00 | 54 | 1011.0 |
| 20260903021509 | 31 | 129 | 1.6 | 4.8 | 0.00 | 0.00 | 0.00 | 55 | 1012.7 |
| 20260903020056 | 32 | 130 | 1.6 | 4.8 | 0.00 | 0.00 | 0.00 | 54 | 1010.9 |
| 20260903020007 | 32 | 130 | 1.6 | 4.8 | 0.00 | 0.00 | 0.00 | 54 | 1012.5 |
| 20260903014554 | 32 | 130 | 1.6 | 4.8 | 0.00 | 0.00 | 0.00 | 52 | 1010.6 |
| 20260903014507 | 32 | 130 | 1.6 | 4.8 | 0.00 | 0.00 | 0.00 | 53 | 1012.3 |
| 20260903013104 | 32 | 109 | 1.6 | 4.8 | 0.00 | 0.00 | 0.00 | 52 | 1010.5 |
| 20260903013005 | 32 | 109 | 1.6 | 4.8 | 0.00 | 0.00 | 0.00 | 52 | 1012.3 |
| 20260903011559 | 33 | 144 | 1.6 | 3.2 | 0.00 | 0.00 | 0.00 | 49 | 1010.5 |
| 20260903011507 | 33 | 144 | 1.6 | 3.2 | 0.00 | 0.00 | 0.00 | 49 | 1012.2 |
| 20260903010111 | 34 | 144 | 0.0 | 4.8 | 0.00 | 0.00 | 0.00 | 48 | 1010.4 |
| 20260903010004 | 34 | 144 | 1.6 | 4.8 | 0.00 | 0.00 | 0.00 | 48 | 1012.1 |
| 20260903004558 | 35 | 147 | 3.2 | 6.4 | 0.00 | 0.00 | 0.00 | 46 | 1010.3 |
| 20260903004504 | 35 | 147 | 1.6 | 6.4 | 0.00 | 0.00 | 0.00 | 47 | 1012.1 |
| 20260903003050 | 35 | 0 | 0.0 | 0.0 | 0.00 | 0.00 | 0.00 | 45 | 1010.4 |
| 20260903003002 | 35 | 190 | 0.0 | 0.0 | 0.00 | 0.00 | 0.00 | 45 | 1012.2 |
| 20260903001603 | 36 | 0 | 0.0 | 8.0 | 0.00 | 0.00 | 0.00 | 44 | 1010.4 |
| 20260903001501 | 36 | 145 | 0.0 | 4.8 | 0.00 | 0.00 | 0.00 | 44 | 1012.2 |
| 20260903000107 | 36 | 138 | 6.4 | 12.9 | 0.00 | 0.00 | 0.00 | 42 | 1012.3 |
| 20260903000104 | 36 | 152 | 4.8 | 12.9 | 0.00 | 0.00 | 0.00 | 42 | 1010.5 |
| 20260902234601 | 36 | 190 | 3.2 | 17.7 | 0.00 | 0.00 | 0.00 | 42 | 1012.4 |
| 20260902234552 | 36 | 267 | 3.2 | 17.7 | 0.00 | 0.00 | 0.00 | 42 | 1010.6 |
| 20260902233059 | 36 | 123 | 3.2 | 11.3 | 0.00 | 0.00 | 0.00 | 42 | 1012.4 |
| 20260902233057 | 36 | 131 | 4.8 | 11.3 | 0.00 | 0.00 | 0.00 | 41 | 1010.8 |
| 20260902231559 | 36 | 115 | 0.0 | 0.0 | 0.00 | 0.00 | 0.00 | 43 | 1012.4 |
| 20260902231555 | 36 | 0 | 0.0 | 0.0 | 0.00 | 0.00 | 0.00 | 43 | 1010.8 |
| 20260902230058 | 37 | 122 | 3.2 | 8.0 | 0.00 | 0.00 | 0.00 | 41 | 1012.4 |
| 20260902230053 | 37 | 150 | 0.0 | 9.7 | 0.00 | 0.00 | 0.00 | 41 | 1010.8 |
| 20260902224557 | 37 | 167 | 4.8 | 12.9 | 0.00 | 0.00 | 0.00 | 39 | 1012.5 |
| 20260902224552 | 37 | 192 | 1.6 | 12.9 | 0.00 | 0.00 | 0.00 | 39 | 1010.9 |
| 20260902223116 | 37 | 106 | 0.0 | 9.7 | 0.00 | 0.00 | 0.00 | 38 | 1010.9 |
| 20260902223103 | 37 | 177 | 3.2 | 9.7 | 0.00 | 0.00 | 0.00 | 38 | 1012.5 |
| 20260902221616 | 38 | 183 | 1.6 | 14.5 | 0.00 | 0.00 | 0.00 | 39 | 1011.0 |
| 20260902220059 | 38 | 0 | 0.0 | 12.9 | 0.00 | 0.00 | 0.00 | 38 | 1011.2 |
| 20260902220056 | 38 | 206 | 0.0 | 6.4 | 0.00 | 0.00 | 0.00 | 38 | 1012.8 |
| 20260902214556 | 37 | 123 | 3.2 | 14.5 | 0.00 | 0.00 | 0.00 | 39 | 1011.2 |
| 20260902214551 | 37 | 58 | 1.6 | 14.5 | 0.00 | 0.00 | 0.00 | 39 | 1012.9 |
| 20260902213101 | 37 | 103 | 3.2 | 14.5 | 0.00 | 0.00 | 0.00 | 39 | 1011.4 |
| 20260902213053 | 37 | 104 | 6.4 | 14.5 | 0.00 | 0.00 | 0.00 | 40 | 1012.9 |
| 20260902211611 | 37 | 246 | 1.6 | 12.9 | 0.00 | 0.00 | 0.00 | 38 | 1011.4 |
| 20260902211605 | 37 | 246 | 3.2 | 12.9 | 0.00 | 0.00 | 0.00 | 39 | 1013.1 |
| 20260902210053 | 37 | 120 | 6.4 | 14.5 | 0.00 | 0.00 | 0.00 | 41 | 1013.2 |
| 20260902204554 | 37 | 129 | 1.6 | 14.5 | 0.00 | 0.00 | 0.00 | 42 | 1011.9 |
| 20260902204547 | 37 | 103 | 4.8 | 12.9 | 0.00 | 0.00 | 0.00 | 42 | 1013.5 |
| 20260902203053 | 37 | 0 | 4.8 | 11.3 | 0.00 | 0.00 | 0.00 | 41 | 1012.1 |
| 20260902203043 | 37 | 109 | 3.2 | 11.3 | 0.00 | 0.00 | 0.00 | 41 | 1013.7 |
| 20260902201629 | 36 | 96 | 0.0 | 9.7 | 0.00 | 0.00 | 0.00 | 42 | 1012.4 |
| 20260902201548 | 37 | 101 | 3.2 | 8.0 | 0.00 | 0.00 | 0.00 | 43 | 1013.9 |
| 20260902200105 | 36 | 175 | 6.4 | 19.3 | 0.00 | 0.00 | 0.00 | 44 | 1012.8 |
| 20260902200037 | 36 | 169 | 4.8 | 17.7 | 0.00 | 0.00 | 0.00 | 45 | 1014.3 |
| 20260902194556 | 36 | 100 | 4.8 | 16.1 | 0.00 | 0.00 | 0.00 | 45 | 1013.0 |
| 20260902194539 | 36 | 91 | 3.2 | 16.1 | 0.00 | 0.00 | 0.00 | 46 | 1014.5 |
| 20260902193050 | 36 | 250 | 3.2 | 16.1 | 0.00 | 0.00 | 0.00 | 47 | 1013.1 |
| 20260902193033 | 36 | 250 | 3.2 | 16.1 | 0.00 | 0.00 | 0.00 | 47 | 1014.7 |
| 20260902191556 | 36 | 0 | 3.2 | 16.1 | 0.00 | 0.00 | 0.00 | 50 | 1013.4 |
| 20260902191529 | 36 | 129 | 1.6 | 14.5 | 0.00 | 0.00 | 0.00 | 51 | 1014.9 |
| 20260902190056 | 36 | 234 | 4.8 | 11.3 | 0.00 | 0.00 | 0.00 | 52 | 1013.6 |
| 20260902190026 | 36 | 255 | 6.4 | 12.9 | 0.00 | 0.00 | 0.00 | 52 | 1015.2 |
| 20260902184554 | 36 | 188 | 8.0 | 14.5 | 0.00 | 0.00 | 0.00 | 51 | 1013.9 |
| 20260902184523 | 36 | 159 | 6.4 | 12.9 | 0.00 | 0.00 | 0.00 | 52 | 1015.5 |
| 20260902183055 | 35 | 130 | 8.0 | 16.1 | 0.00 | 0.00 | 0.00 | 53 | 1014.2 |
| 20260902183019 | 35 | 130 | 6.4 | 16.1 | 0.00 | 0.00 | 0.00 | 53 | 1015.8 |
| 20260902181613 | 35 | 0 | 1.6 | 11.3 | 0.00 | 0.00 | 0.00 | 56 | 1014.4 |
| 20260902181518 | 35 | 201 | 1.6 | 11.3 | 0.00 | 0.00 | 0.00 | 56 | 1016.0 |
| 20260902180059 | 35 | 197 | 3.2 | 12.9 | 0.00 | 0.00 | 0.00 | 54 | 1014.9 |
| 20260902180018 | 35 | 215 | 1.6 | 12.9 | 0.00 | 0.00 | 0.00 | 55 | 1016.4 |
| 20260902174552 | 35 | 144 | 1.6 | 11.3 | 0.00 | 0.00 | 0.00 | 56 | 1015.0 |
| 20260902174512 | 35 | 132 | 1.6 | 11.3 | 0.00 | 0.00 | 0.00 | 57 | 1016.6 |
| 20260902173056 | 34 | 104 | 3.2 | 16.1 | 0.00 | 0.00 | 0.00 | 57 | 1015.2 |
| 20260902173009 | 34 | 129 | 4.8 | 14.5 | 0.00 | 0.00 | 0.00 | 57 | 1016.9 |
| 20260902171609 | 33 | 0 | 3.2 | 12.9 | 0.00 | 0.00 | 0.00 | 61 | 1015.2 |
| 20260902171506 | 33 | 217 | 3.2 | 12.9 | 0.00 | 0.00 | 0.00 | 60 | 1016.9 |
| 20260902170057 | 33 | 158 | 3.2 | 12.9 | 0.00 | 0.00 | 0.00 | 60 | 1015.6 |
| 20260902170003 | 33 | 86 | 3.2 | 12.9 | 0.00 | 0.00 | 0.00 | 61 | 1017.1 |
| 20260902164610 | 33 | 190 | 4.8 | 12.9 | 0.00 | 0.00 | 0.00 | 64 | 1017.2 |
| 20260902164557 | 33 | 101 | 3.2 | 12.9 | 0.00 | 0.00 | 0.00 | 64 | 1015.8 |
| 20260902163055 | 32 | 277 | 0.0 | 9.7 | 0.00 | 0.00 | 0.00 | 67 | 1017.2 |
| 20260902161602 | 32 | 0 | 0.0 | 6.4 | 0.00 | 0.00 | 0.00 | 68 | 1015.7 |
| 20260902161600 | 32 | 51 | 0.0 | 6.4 | 0.00 | 0.00 | 0.00 | 68 | 1017.1 |
| 20260902160049 | 31 | 235 | 3.2 | 9.7 | 0.00 | 0.00 | 0.00 | 70 | 1017.2 |
| 20260902154604 | 31 | 203 | 4.8 | 11.3 | 0.00 | 0.00 | 0.00 | 72 | 1015.6 |
| 20260902153056 | 30 | 201 | 3.2 | 16.1 | 0.00 | 0.00 | 0.00 | 74 | 1015.7 |
| 20260902153046 | 30 | 201 | 3.2 | 14.5 | 0.00 | 0.00 | 0.00 | 75 | 1017.4 |
| 20260902151603 | 30 | 183 | 3.2 | 11.3 | 0.00 | 0.00 | 0.00 | 76 | 1015.7 |
| 20260902151541 | 30 | 211 | 3.2 | 9.7 | 0.00 | 0.00 | 0.00 | 76 | 1017.5 |
| 20260902150052 | 30 | 115 | 0.0 | 16.1 | 0.00 | 0.00 | 0.00 | 77 | 1015.7 |
| 20260902150039 | 30 | 115 | 1.6 | 12.9 | 0.00 | 0.00 | 0.00 | 77 | 1017.3 |
| 20260902144555 | 28 | 173 | 4.8 | 9.7 | 0.00 | 0.00 | 0.00 | 80 | 1015.8 |
| 20260902144541 | 28 | 214 | 4.8 | 9.7 | 0.00 | 0.00 | 0.00 | 80 | 1017.5 |
| 20260902143053 | 28 | 163 | 3.2 | 11.3 | 0.00 | 0.00 | 0.00 | 81 | 1016.0 |
| 20260902143035 | 28 | 163 | 1.6 | 8.0 | 0.00 | 0.00 | 0.00 | 82 | 1017.5 |
| 20260902141555 | 28 | 142 | 4.8 | 9.7 | 0.00 | 0.00 | 0.00 | 82 | 1015.9 |
| 20260902141534 | 28 | 142 | 4.8 | 8.0 | 0.00 | 0.00 | 0.00 | 83 | 1017.5 |
| 20260902140055 | 27 | 182 | 3.2 | 8.0 | 0.00 | 0.00 | 0.00 | 85 | 1016.0 |
| 20260902140037 | 27 | 182 | 3.2 | 8.0 | 0.00 | 0.00 | 0.00 | 85 | 1017.4 |
| 20260902134611 | 26 | 192 | 1.6 | 6.4 | 0.00 | 0.00 | 0.00 | 88 | 1015.8 |
| 20260902134530 | 26 | 192 | 1.6 | 6.4 | 0.00 | 0.00 | 0.00 | 89 | 1017.3 |
| 20260902133059 | 26 | 188 | 0.0 | 4.8 | 0.00 | 0.00 | 0.00 | 91 | 1015.8 |
| 20260902133029 | 26 | 188 | 0.0 | 4.8 | 0.00 | 0.00 | 0.00 | 91 | 1017.1 |
| 20260902131552 | 25 | 0 | 0.0 | 3.2 | 0.00 | 0.00 | 0.00 | 92 | 1015.6 |
| 20260902131529 | 25 | 173 | 0.0 | 3.2 | 0.00 | 0.00 | 0.00 | 92 | 1017.0 |